Tracking 28920 objects as of 24-May-2024
HD Live streaming from Space Station
objects crossing your sky now

NOAA 8

Track NOAA 8 now!
10-day predictions
NOAA 8 is classified as:


NORAD ID: 13923
Int'l Code: 1983-022A
Perigee: 791.4 km
Apogee: 811.4 km
Inclination: 98.7 °
Period: 100.8 minutes
Semi major axis: 7172 km
RCS: 5.054 m2 (large)
Launch date: March 28, 1983
Source: United States (US)
Launch site: AIR FORCE WESTERN TEST RANGE (AFWTR)

Uplink (MHz):
Downlink (MHz):
Beacon (MHz):
Mode:
Call sign:
Status:

Your satellite tracking list
Your tracking list is empty




NASA's NSSDC Master Catalog

Two Line Element Set (TLE):
1 13923U 83022A   24144.99138909  .00000414  00000-0  18045-3 0  9996
2 13923  98.7298 144.9117 0013977 306.8712  53.1188 14.29241555143578
Source of the keplerian elements: AFSPC